Simultaneous Nadir Overpasses (SNOs) Predictions

Prediction of SNOs between METOP-B and NOAA-19 Satellite Orbit:

Table of predicted SNOs for the next 14.0 days since TLE Epoch: 2/15/2020
Index Date (METOP-B) Time (METOP-B) Lat,Lon (METOP-B) SZA (METOP-B ) Date (NOAA-19) Time (NOAA-19) Lat,Lon (NOAA-19) SZA (NOAA-19 ) Distance(km) Time Diff (sec)
1 02/21/2020 09:42:03 -79.80,-125.00 89.14 02/21/2020 09:40:58 -79.82,-125.02 89.14 1.80 65
2 02/21/2020 10:32:43 79.80, 42.32 90.85 02/21/2020 10:31:55 79.82, 42.23 90.86 2.64 48
3 02/21/2020 11:23:25 -79.79,-150.45 89.18 02/21/2020 11:22:58 -79.80,-150.32 89.17 2.95 27
4 02/21/2020 12:14:05 79.79, 16.87 90.81 02/21/2020 12:13:55 79.80, 16.93 90.83 2.01 10
5 02/21/2020 13:04:46 -79.81,-175.62 89.18 02/21/2020 13:04:58 -79.78,-175.61 89.20 2.88 12
6 02/21/2020 13:55:26 79.81, -8.30 90.81 02/21/2020 13:55:55 79.78, -8.37 90.79 2.85 29
7 02/21/2020 14:46:08 -79.80, 158.93 89.22 02/21/2020 14:46:59 -79.79, 158.79 89.22 2.81 51




NCC Satellite Simultaneous Nadir Overpasses (SNOs) Prediction Service
